Home   Weather   Newtown   Past weeks

Flag for United Kingdom Past Weather in Newtown, Wales, United Kingdom — Yesterday and Last 2 Weeks

42 °F

Quite cool.

Feels Like: 36 °F
Forecast: 39 / 48 °F
Wind: 10 mph from Northeast

Location: Lake Vyrnwy

Current Time: Oct 23, 2016 at 12:36:21 AM

Latest Report: Oct 22, 2016 at 11:00 PM

Visibility: 18 mi

Pressure: 30.02 "Hg

Humidity: 92%

Dew Point: 40 °F

Location of NewtownLocation

Past Weather in Newtown — Graph


Newtown Temperature Yesterday

Maximum temperature yesterday: 48 °F (at 3:00 PM)
Minimum temperature yesterday: 37 °F (at 8:00 AM)
Average temperature yesterday: 44 °F

High & Low Weather Summary for the Past Weeks

High53 °F (Oct 8, 2:00 PM)100% (Oct 8, 4:00 AM)30.45 "Hg (Oct 8, 4:00 AM)
Low37 °F (Oct 22, 8:00 AM)62% (Oct 9, 3:00 PM)29.62 "Hg (Oct 15, 7:00 AM)
Average47 °F91%30.09 "Hg
* Reported Oct 7 11:00 PM — Oct 22 11:00 PM, Newtown, Weather by CustomWeather, © 2016

Note: Actual official high and low records may vary slightly from our data, if they occured in-between our weather recording intervals... More about our weather records


Newtown Weather History for the Previous 24 Hours

Scroll right to see more
Time TempWeatherWind HumidityBarometerVisibility
11:00 PM
Sat, Oct 22
42 °FQuite cool.10 mph92%30.02 "Hg18 mi
10:00 PM44 °FQuite cool.13 mph87%30.02 "Hg22 mi
9:00 PM45 °FQuite cool.16 mph86%30.03 "Hg25 mi
8:00 PM46 °FCool.12 mph87%30.03 "Hg19 mi
7:00 PM45 °FCool.12 mph87%30.03 "Hg19 mi
6:00 PM46 °FCool.14 mph88%30.02 "Hg19 mi
5:00 PM47 °FCool.9 mph84%30.02 "Hg22 mi
4:00 PM47 °FCool.10 mph87%30.03 "Hg19 mi
3:00 PM48 °FCool.8 mph83%30.04 "Hg22 mi
2:00 PM47 °FCool.8 mph90%30.06 "Hg19 mi
1:00 PM48 °FCool.10 mph85%30.07 "Hg22 mi
12:00 PM45 °FCool.7 mph96%30.08 "Hg12 mi
11:00 AM44 °FQuite cool.6 mph99%30.09 "Hg10 mi
10:00 AM41 °FQuite cool.3 mph98%30.10 "Hg19 mi
9:00 AM40 °FChilly.3 mph98%30.11 "Hg22 mi
8:00 AM37 °FChilly.3 mph97%30.11 "Hg5 mi
7:00 AM38 °FChilly.5 mph98%30.10 "Hg10 mi
6:00 AM40 °FChilly.5 mph98%30.10 "Hg15 mi
Weather by CustomWeather, © 2016

See weather overviewHow to use our weather pages